When you browse on this site, cookies collect data to enhance your experience and personalize the content and advertising you see.
Visit our Privacy Policy to learn more. By continuing to use the site, you agree to this use of cookies and data.
  • In Portugal
  • List of Countries
  • For 7 days
  • Water Temperature
  • Satellite Maps
  • Weather Map
  • Weather Widgets
  • user-avatar
    Login

    Hourly Weather Bukavu

    Today, 22 March, Friday

    Time Temperature Precipitation Wind Pressure Humidity
    00:00 +24°C° 0 mm 0 mps 686 mmHg 58%
    01:00 +23°C° 0 mm 0 mps 686 mmHg 60%
    02:00 +23°C° 0 mm 0 mps 686 mmHg 62%
    03:00 +23°C° 0 mm 0 mps 686 mmHg 63%
    04:00 +25°C° 0 mm 1 mps 686 mmHg 64%
    05:00 +24°C° 0 mm 1 mps 686 mmHg 65%
    06:00 +25°C° 0.1 mm 1 mps 687 mmHg 67%
    07:00 +25°C° 0.1 mm 1 mps 687 mmHg 69%
    08:00 +26°C° 0.1 mm 1 mps 688 mmHg 71%
    09:00 +29°C° 0 mm 1 mps 688 mmHg 59%
    10:00 +32°C° 0 mm 1 mps 689 mmHg 47%
    11:00 +36°C° 0 mm 1 mps 689 mmHg 36%
    12:00 +36°C° 0 mm 1 mps 688 mmHg 34%
    13:00 +36°C° 0 mm 1 mps 687 mmHg 32%
    14:00 +35°C° 0 mm 0 mps 686 mmHg 30%
    15:00 +33°C° 0 mm 0 mps 686 mmHg 34%
    16:00 +32°C° 0 mm 0 mps 686 mmHg 39%
    17:00 +32°C° 0 mm 1 mps 685 mmHg 43%
    18:00 +29°C° 0 mm 0 mps 685 mmHg 47%
    19:00 +27°C° 0 mm 0 mps 686 mmHg 51%
    20:00 +26°C° 0 mm 0 mps 686 mmHg 55%
    21:00 +25°C° 0 mm 0 mps 686 mmHg 60%
    22:00 +23°C° 0 mm 0 mps 686 mmHg 65%
    23:00 +22°C° 0 mm 0 mps 686 mmHg 70%

    Tomorrow, 23 March, Saturday

    Time Temperature Precipitation Wind Pressure Humidity
    00:00 +22°C° 0 mm 0 mps 686 mmHg 69%
    01:00 +24°C° 0 mm 1 mps 686 mmHg 69%
    02:00 +24°C° 0 mm 1 mps 685 mmHg 69%
    03:00 +23°C° 0 mm 1 mps 685 mmHg 71%
    04:00 +23°C° 0 mm 1 mps 685 mmHg 72%
    05:00 +23°C° 0 mm 1 mps 685 mmHg 74%
    06:00 +24°C° 0 mm 1 mps 686 mmHg 69%
    07:00 +26°C° 0 mm 1 mps 687 mmHg 64%
    08:00 +28°C° 0 mm 1 mps 687 mmHg 58%
    09:00 +31°C° 0 mm 1 mps 688 mmHg 47%
    10:00 +35°C° 0 mm 1 mps 688 mmHg 36%
    11:00 +39°C° 0 mm 1 mps 688 mmHg 25%
    12:00 +40°C° 0 mm 1 mps 688 mmHg 22%
    13:00 +42°C° 0 mm 1 mps 687 mmHg 18%
    14:00 +43°C° 0 mm 1 mps 686 mmHg 14%
    15:00 +41°C° 0 mm 1 mps 685 mmHg 17%
    16:00 +40°C° 0 mm 1 mps 685 mmHg 20%
    17:00 +37°C° 0 mm 1 mps 684 mmHg 23%
    18:00 +35°C° 0 mm 1 mps 684 mmHg 27%
    19:00 +31°C° 0 mm 0 mps 685 mmHg 32%
    20:00 +28°C° 0 mm 0 mps 685 mmHg 36%
    21:00 +28°C° 0 mm 0 mps 685 mmHg 36%
    22:00 +28°C° 0 mm 0 mps 686 mmHg 37%
    23:00 +27°C° 0 mm 0 mps 686 mmHg 38%

    Day after tomorrow, 24 March, Sunday

    Time Temperature Precipitation Wind Pressure Humidity
    00:00 +29°C° 0 mm 1 mps 686 mmHg 39%
    01:00 +29°C° 0 mm 1 mps 685 mmHg 41%
    02:00 +28°C° 0 mm 1 mps 685 mmHg 42%
    03:00 +27°C° 0 mm 1 mps 685 mmHg 49%
    04:00 +25°C° 0 mm 1 mps 685 mmHg 56%
    05:00 +22°C° 0 mm 0 mps 684 mmHg 63%
    06:00 +25°C° 0 mm 1 mps 685 mmHg 63%
    07:00 +26°C° 0 mm 1 mps 686 mmHg 63%
    08:00 +26°C° 0 mm 1 mps 687 mmHg 62%
    09:00 +29°C° 0 mm 1 mps 687 mmHg 54%
    10:00 +32°C° 0 mm 1 mps 688 mmHg 46%
    11:00 +35°C° 0 mm 1 mps 689 mmHg 37%
    12:00 +34°C° 0.1 mm 1 mps 687 mmHg 43%
    13:00 +33°C° 0.1 mm 1 mps 686 mmHg 48%
    14:00 +29°C° 0.1 mm 0 mps 684 mmHg 53%
    15:00 +33°C° 0 mm 1 mps 684 mmHg 46%
    16:00 +34°C° 0 mm 1 mps 684 mmHg 39%
    17:00 +36°C° 0 mm 1 mps 685 mmHg 32%
    18:00 +33°C° 0 mm 1 mps 685 mmHg 43%
    19:00 +30°C° 0 mm 1 mps 685 mmHg 53%
    20:00 +28°C° 0 mm 2 mps 685 mmHg 63%
    21:00 +27°C° 0 mm 1 mps 686 mmHg 66%
    22:00 +26°C° 0 mm 1 mps 686 mmHg 70%
    23:00 +26°C° 0 mm 1 mps 686 mmHg 73%

    25 March, Monday

    Time Temperature Precipitation Wind Pressure Humidity
    00:00 +25°C° 0.2 mm 1 mps 686 mmHg 78%
    01:00 +24°C° 0.2 mm 2 mps 686 mmHg 83%
    02:00 +24°C° 0.2 mm 2 mps 685 mmHg 88%
    03:00 +23°C° 0.4 mm 1 mps 686 mmHg 92%
    04:00 +23°C° 0.4 mm 1 mps 686 mmHg 95%
    05:00 +22°C° 0.4 mm 1 mps 686 mmHg 99%
    06:00 +23°C° 0.4 mm 1 mps 687 mmHg 96%
    07:00 +24°C° 0.4 mm 1 mps 688 mmHg 92%
    08:00 +25°C° 0.4 mm 2 mps 689 mmHg 89%
    09:00 +27°C° 0.2 mm 2 mps 689 mmHg 78%
    10:00 +30°C° 0.2 mm 2 mps 689 mmHg 66%
    11:00 +32°C° 0.2 mm 2 mps 689 mmHg 55%
    12:00 +31°C° 2.5 mm 2 mps 688 mmHg 62%
    13:00 +30°C° 2.5 mm 2 mps 687 mmHg 70%
    14:00 +29°C° 2.5 mm 1 mps 685 mmHg 77%
    15:00 +29°C° 0.6 mm 1 mps 685 mmHg 71%
    16:00 +29°C° 0.6 mm 1 mps 686 mmHg 65%
    17:00 +30°C° 0.6 mm 2 mps 686 mmHg 59%
    18:00 +27°C° 1 mm 1 mps 686 mmHg 71%
    19:00 +25°C° 1 mm 1 mps 686 mmHg 83%
    20:00 +23°C° 1 mm 1 mps 686 mmHg 96%
    21:00 +23°C° 0.3 mm 1 mps 687 mmHg 96%
    22:00 +23°C° 0.3 mm 1 mps 687 mmHg 96%
    23:00 +22°C° 0.3 mm 1 mps 687 mmHg 96%

    26 March, Tuesday

    Time Temperature Precipitation Wind Pressure Humidity
    00:00 +22°C° 0 mm 1 mps 687 mmHg 96%
    01:00 +22°C° 0 mm 1 mps 687 mmHg 97%
    02:00 +22°C° 0 mm 1 mps 686 mmHg 97%
    03:00 +22°C° 0.2 mm 1 mps 686 mmHg 98%
    04:00 +21°C° 0.2 mm 1 mps 687 mmHg 98%
    05:00 +19°C° 0.2 mm 0 mps 687 mmHg 98%
    06:00 +20°C° 0.1 mm 0 mps 688 mmHg 95%
    07:00 +23°C° 0.1 mm 1 mps 689 mmHg 91%
    08:00 +24°C° 0.1 mm 1 mps 689 mmHg 88%
    09:00 +25°C° 1 mm 1 mps 689 mmHg 84%
    10:00 +27°C° 1 mm 1 mps 689 mmHg 81%
    11:00 +28°C° 1 mm 1 mps 689 mmHg 77%
    12:00 +30°C° 0.3 mm 2 mps 689 mmHg 65%
    13:00 +32°C° 0.3 mm 2 mps 688 mmHg 54%
    14:00 +35°C° 0.3 mm 2 mps 688 mmHg 42%
    15:00 +34°C° 0 mm 2 mps 687 mmHg 44%
    16:00 +32°C° 0 mm 1 mps 687 mmHg 46%
    17:00 +32°C° 0 mm 1 mps 687 mmHg 48%
    18:00 +30°C° 0 mm 1 mps 687 mmHg 56%
    19:00 +28°C° 0 mm 1 mps 687 mmHg 63%
    20:00 +26°C° 0 mm 1 mps 687 mmHg 71%
    21:00 +24°C° 3.6 mm 1 mps 688 mmHg 80%
    22:00 +23°C° 3.6 mm 1 mps 688 mmHg 89%
    23:00 +21°C° 3.6 mm 2 mps 688 mmHg 98%

    27 March, Wednesday

    Time Temperature Precipitation Wind Pressure Humidity
    00:00 +22°C° 0.5 mm 1 mps 688 mmHg 98%
    01:00 +22°C° 0.5 mm 1 mps 688 mmHg 98%
    02:00 +22°C° 0.5 mm 1 mps 687 mmHg 99%
    03:00 +22°C° 0 mm 1 mps 687 mmHg 98%
    04:00 +19°C° 0 mm 0 mps 688 mmHg 98%
    05:00 +19°C° 0 mm 0 mps 688 mmHg 98%
    06:00 +22°C° 0 mm 1 mps 689 mmHg 97%
    07:00 +23°C° 0 mm 1 mps 689 mmHg 95%
    08:00 +23°C° 0 mm 1 mps 690 mmHg 93%
    09:00 +27°C° 0 mm 1 mps 690 mmHg 77%
    10:00 +30°C° 0 mm 1 mps 691 mmHg 60%
    11:00 +34°C° 0 mm 2 mps 691 mmHg 43%
    12:00 +32°C° 0.1 mm 1 mps 690 mmHg 47%
    13:00 +31°C° 0.1 mm 1 mps 689 mmHg 51%
    14:00 +28°C° 0.1 mm 0 mps 688 mmHg 55%
    15:00 +28°C° 0.2 mm 0 mps 688 mmHg 59%
    16:00 +29°C° 0.2 mm 1 mps 688 mmHg 63%
    17:00 +29°C° 0.2 mm 1 mps 687 mmHg 67%
    18:00 +27°C° 0.4 mm 1 mps 688 mmHg 75%
    19:00 +25°C° 0.4 mm 1 mps 688 mmHg 84%
    20:00 +23°C° 0.4 mm 1 mps 688 mmHg 93%
    21:00 +23°C° 1.6 mm 1 mps 688 mmHg 95%
    22:00 +22°C° 1.6 mm 1 mps 689 mmHg 96%
    23:00 +22°C° 1.6 mm 1 mps 689 mmHg 98%
    Show more